Location: Wanzleben
(52.0609°N, 11.4408°E)
Time: 10:45:43
(UTC+00:00)

USA 238 DEB - Pass Details

Date: 18 September 2020
Orbit: 1004 x 1208 km, 63.4° (Epoch: 28 October)

Event Time Altitude Azimuth Distance (km) Brightness Sun altitude
Rises 19:31:42 0° 314° (NW) 3,934 8.1 -19.9°
Reaches altitude 10° 19:34:22 10° 311° (NW) 3,002 7.2 -20.3°
Maximum altitude 19:41:24 60° 234° (SW) 1,317 4.2 -21.2°
Enters shadow 19:45:40 26° 165° (SSE) 2,124 4.8 -21.7°
